Regional Weather Roundup
Issued by NWS Jackson, KY

Home | Current Version | Previous Version | Text Only | Print | Product List | Glossary On
Versions: 1 2 3 4 5 6 7 8 9 10 11 12 13 14 15 16 17 18 19 20 21 22 23 24 25 26 27 28 29 30 31 32 33 34 35 36 37 38 39 40 41 42 43 44 45 46 47 48 49 50
000
ASUS43 KJKL 012110
RWRJKL

EAST KENTUCKY HOURLY WEATHER ROUNDUP
NATIONAL WEATHER SERVICE JACKSON KY
500 PM EDT WED JUL 01 2015

NOTE: "FAIR" INDICATES FEW OR NO CLOUDS BELOW 12,000 FEET WITH
NO SIGNIFICANT WEATHER AND/OR OBSTRUCTIONS TO VISIBILITY.

* THESE REPORTS ARE NOT UNDER NWS QUALITY CONTROL AND MAY NOT
  REPORT WEATHER SUCH AS PRECIPITATION AND FOG.

KYZ079-080-083-085-087-088-110-112-115-119-120-012200
...EASTERN KENTUCKY...

CITY           SKY/WX    TMP DP  RH WIND       PRES   REMARKS
JACKSON        CLOUDY    75  68  78 VRB3      29.96S HAZE
LONDON         LGT RAIN  74  67  78 SW7       29.98S
SOMERSET*      CLOUDY    70  70 100 CALM      29.97F
MONTICELLO*    CLOUDY    79  72  79 SW9       29.98F
MIDDLESBORO*   CLOUDY    73  70  91 CALM      30.00S
HARLAN APT*      N/A     70  70 100 NW3       30.00F
BLACK MTN*       N/A     63  63 100 S6          N/A
PIKEVILLE APT* MOSUNNY   70  66  88 SW3       29.96S
BIG SANDY*     CLOUDY    73  68  84 SW5       29.94F
MOREHEAD APT*  CLEAR     77  66  69 VRB3      29.95S
$$

KYZ035-036-041-042-044-050-067-078-099-012200
...CENTRAL KENTUCKY...

CITY           SKY/WX    TMP DP  RH WIND       PRES   REMARKS
MT STERLING*   CLOUDY    72  68  88 SW7       29.95S
FLEMING/MASON* SUNNY     77  64  65 W5        29.93F
DANVILLE*      CLOUDY    72  70  94 SW5       29.95S
RICHMOND*      CLOUDY    72  66  83 SW6       29.94S
LEXINGTON      RAIN      72  70  93 W6        29.93S FOG
FRANKFORT      CLOUDY    70  67  90 SW7       29.91F FOG
$$

KYZ091>093-OHZ055-061-077-WVZ005-015-034-035-042-012200
...SOUTHERN OHIO/WEST VIRGINIA...

CITY           SKY/WX    TMP DP  RH WIND       PRES   REMARKS
COVINGTON      CLOUDY    78  63  59 W3        29.91F
COLUMBUS       MOSUNNY   78  59  51 NW9       29.90F
DAYTON         MOSUNNY   78  59  51 NW8       29.92F
WILMINGTON     MOSUNNY   77  55  46 VRB5      29.92F
HUNTINGTON     PTSUNNY   78  66  66 NW3       29.91F
CHARLESTON     MOSUNNY   79  64  60 SW5       29.92F
PINEVILLE*     MOSUNNY   76  71  83 MISG      30.00F
BECKLEY        MOSUNNY   76  60  57 W8        29.99F
BLUEFIELD      MOSUNNY   77  60  55 W6        30.02F
$$

VAZ002-007-008-TNZ017-027-036-066-071-012200
...SOUTHWEST VIRGINIA/EAST TENNESSEE...

CITY           SKY/WX    TMP DP  RH WIND       PRES   REMARKS
WISE*          CLOUDY    72  63  73 SW9       30.04S
JONESVILLE*      N/A    N/A N/A N/A MISG        N/A
ABINGDON*      CLOUDY    76  68  76 W7        30.01S
BRISTOL        CLOUDY    76  67  73 SW13      30.00R
KNOXVILLE      LGT RAIN  73  67  81 S15       30.00R
OAK RIDGE      CLOUDY    80  68  66 W5        30.01R
CROSSVILLE     LGT RAIN  70  64  81 W7        30.06S
NASHVILLE      CLOUDY    72  70  93 S10       29.98R
$$

...KEY TO REMARKS...
VSB - VISIBILITY IN MILES
WCI - WIND CHILL INDEX
HX  - HEAT INDEX

$$


USA.gov is the U.S. government's official web portal to all federal, state and local government web resources and services.